Wind from 123 at 3 knots gusting 8

Air temperature 20.6° C
Dewpoint 12.0° C

Last reported at 2014-Apr-23 12:44 UTC.
Time now 2014-Apr-23 13:13 UTC

Location: N 42°07' E 003°08'.
View on Google Maps.

See reports from other nearby stations

Tides Stations Pressure Air Temp Water Temp Dewpoint Dewpoint depression Visibility Wind Speed Wind Dir Waves Ship positions

  
sailing weather and tide predictions

DW8835 La Escala ES weather

date/time (UTC)wind fromknots sea level pressurealtimeterstation pressurevisibilityair tempwater tempwave heightnotes
2014-Apr-23 12:44 123 3 gusting 8 20.6
2014-Apr-23 12:34 103 4 gusting 9 20.6
2014-Apr-23 12:24 107 4 gusting 9 20.6
2014-Apr-23 12:14 112 2 gusting 8 21.1
2014-Apr-23 12:04 113 4 gusting 8 20.0
2014-Apr-23 11:54 105 4 gusting 7 20.0
2014-Apr-23 11:44 067 3 gusting 7 20.0
2014-Apr-23 11:34 036 3 gusting 8 20.0
2014-Apr-23 11:24 071 2 gusting 7 20.6
2014-Apr-23 11:14 098 4 gusting 7 20.0
2014-Apr-23 11:04 131 2 gusting 7 19.4
2014-Apr-23 10:54 065 4 gusting 9 19.4
2014-Apr-23 10:44 108 4 gusting 8 18.9
2014-Apr-23 10:34 103 4 gusting 8 18.9
2014-Apr-23 10:24 047 2 gusting 6 19.4
2014-Apr-23 10:14 072 4 gusting 6 19.4
2014-Apr-23 10:04 112 2 gusting 6 18.9
2014-Apr-23 09:54 123 1 gusting 6 18.9
2014-Apr-23 09:44 085 3 gusting 6 18.3
2014-Apr-23 09:34 227 1 gusting 4 19.4
2014-Apr-23 09:24 158 18.9
2014-Apr-23 09:14 096 0 gusting 2 18.9
2014-Apr-23 09:04 294 0 gusting 3 18.3
2014-Apr-23 08:54 233 0 gusting 3 17.8
2014-Apr-23 08:44 269 0 gusting 2 17.8
2014-Apr-23 08:34 308 17.2
2014-Apr-23 08:24 172 2 gusting 3 16.7
2014-Apr-23 08:14 304 2 gusting 5 16.1
2014-Apr-23 08:04 266 3 gusting 4 15.6
2014-Apr-23 07:54 289 2 gusting 4 15.6
2014-Apr-23 07:44 281 2 gusting 4 14.4
2014-Apr-23 07:34 257 2 gusting 4 14.4
2014-Apr-23 07:24 330 1 gusting 4 13.9
2014-Apr-23 07:14 296 3 gusting 4 13.3
2014-Apr-23 07:04 345 0 gusting 3 13.3
2014-Apr-23 06:54 334 1 gusting 2 13.3
2014-Apr-23 06:44 205 12.8
2014-Apr-23 06:34 205 12.2
2014-Apr-23 06:24 205 11.7
2014-Apr-23 06:14 182 11.7
2014-Apr-23 06:04 221 0 gusting 1 11.1
2014-Apr-23 05:54 215 11.1
2014-Apr-23 05:44 215 11.1
2014-Apr-23 05:34 208 1 gusting 3 11.1
2014-Apr-23 05:24 235 0 gusting 1 11.1
2014-Apr-23 05:14 234 0 gusting 3 11.1
2014-Apr-23 05:04 217 11.1
2014-Apr-23 04:54 202 1 gusting 3 11.7
2014-Apr-23 04:44 186 11.7
2014-Apr-23 04:34 184 11.7
2014-Apr-23 04:24 181 11.7
2014-Apr-23 04:14 181 11.7
2014-Apr-23 04:04 181 11.7
2014-Apr-23 03:54 181 11.7
2014-Apr-23 03:44 178 1 gusting 4 12.2
2014-Apr-23 03:34 213 12.2
2014-Apr-23 03:24 188 12.2
2014-Apr-23 03:14 209 12.2
2014-Apr-23 03:04 188 0 gusting 2 12.2
2014-Apr-23 02:54 204 12.2
2014-Apr-23 02:44 219 0 gusting 4 12.2
2014-Apr-23 02:34 235 0 gusting 3 12.2
2014-Apr-23 02:24 200 12.2
2014-Apr-23 02:14 196 12.8
2014-Apr-23 02:04 196 12.8
2014-Apr-23 01:54 196 12.8
2014-Apr-23 01:44 196 12.8
2014-Apr-23 01:34 191 0 gusting 3 12.8
2014-Apr-23 01:24 181 1 gusting 3 12.8
2014-Apr-23 01:14 182 1 gusting 2 12.8
2014-Apr-23 01:04 183 1 gusting 4 12.8
2014-Apr-23 00:54 189 0 gusting 2 12.8
2014-Apr-23 00:44 223 0 gusting 4 12.8
2014-Apr-23 00:34 213 0 gusting 3 12.8
2014-Apr-23 00:24 221 0 gusting 4 12.8
2014-Apr-23 00:14 209 0 gusting 3 12.8
2014-Apr-23 00:04 225 0 gusting 2 12.8
2014-Apr-22 23:54 226 0 gusting 2 12.8
2014-Apr-22 23:44 236 12.8
2014-Apr-22 23:34 229 12.8
2014-Apr-22 23:24 224 2 gusting 4 13.3
2014-Apr-22 23:14 194 13.3
2014-Apr-22 23:04 192 13.3
2014-Apr-22 22:54 192 13.3
2014-Apr-22 22:44 191 13.3
2014-Apr-22 22:34 190 13.3
2014-Apr-22 22:24 190 13.3
2014-Apr-22 22:14 190 13.3
2014-Apr-22 22:04 191 13.3
2014-Apr-22 21:54 190 13.3
2014-Apr-22 21:44 190 13.3
2014-Apr-22 21:34 190 13.3
2014-Apr-22 21:24 190 13.3
2014-Apr-22 21:14 191 13.3
2014-Apr-22 21:04 191 13.9
2014-Apr-22 20:54 198 13.9
2014-Apr-22 20:44 198 0 gusting 2 13.9
2014-Apr-22 20:34 193 1 gusting 3 13.9
2014-Apr-22 20:24 197 2 gusting 3 13.9
2014-Apr-22 20:14 194 1 gusting 2 14.4
2014-Apr-22 20:04 192 14.4
2014-Apr-22 19:54 192 0 gusting 3 15.0
2014-Apr-22 19:44 138 15.0
2014-Apr-22 19:34 138 15.0
2014-Apr-22 19:24 138 15.0
2014-Apr-22 19:14 138 15.6
2014-Apr-22 19:04 136 15.6
2014-Apr-22 18:54 136 15.6
2014-Apr-22 18:44 136 15.6
2014-Apr-22 18:34 136 15.6
2014-Apr-22 18:24 099 0 gusting 4 15.6
2014-Apr-22 18:14 096 0 gusting 3 16.1
2014-Apr-22 18:04 107 1 gusting 6 16.1
2014-Apr-22 17:54 092 1 gusting 6 16.1
2014-Apr-22 17:44 087 0 gusting 6 16.1
2014-Apr-22 17:34 076 1 gusting 4 16.1
2014-Apr-22 17:24 119 16.1
2014-Apr-22 17:14 071 2 gusting 7 16.1
2014-Apr-22 17:04 107 0 gusting 6 16.1
2014-Apr-22 16:54 131 1 gusting 6 16.1
2014-Apr-22 16:44 091 1 gusting 4 16.1
2014-Apr-22 16:34 080 2 gusting 6 16.1
2014-Apr-22 16:24 081 1 gusting 6 16.1
2014-Apr-22 16:14 076 0 gusting 4 16.1
2014-Apr-22 15:54 084 2 gusting 6 16.7
2014-Apr-22 15:44 092 2 gusting 7 16.7
2014-Apr-22 15:34 046 4 gusting 7 16.7
2014-Apr-22 15:24 051 1 gusting 6 16.7
2014-Apr-22 15:14 074 2 gusting 6 16.7
2014-Apr-22 15:04 035 1 gusting 7 17.2
2014-Apr-22 14:54 011 4 gusting 10 17.2
2014-Apr-22 14:44 069 4 gusting 13 17.2
2014-Apr-22 14:34 005 6 gusting 10 17.2
2014-Apr-22 14:24 050 4 gusting 9 17.2
2014-Apr-22 14:14 069 17.2
2014-Apr-22 14:04 067 2 gusting 4 17.2
2014-Apr-22 13:54 076 1 gusting 3 17.8
2014-Apr-22 13:44 107 1 gusting 4 17.8
2014-Apr-22 13:34 105 3 gusting 6 17.2
2014-Apr-22 13:24 155 2 gusting 6 16.7
2014-Apr-22 13:14 096 2 gusting 4 17.2
2014-Apr-22 13:04 087 2 gusting 6 17.2
2014-Apr-22 12:54 132 3 gusting 4 16.7
2014-Apr-22 12:44 103 0 gusting 4 16.7
2014-Apr-22 12:34 113 1 gusting 4 16.7
2014-Apr-22 12:24 129 1 gusting 4 16.1
2014-Apr-22 12:14 111 1 gusting 4 16.1
2014-Apr-22 12:04 117 0 gusting 3 16.1
2014-Apr-22 11:54 111 16.1
2014-Apr-22 11:34 124 0 gusting 4 15.6
2014-Apr-22 11:24 078 2 gusting 5 15.6
2014-Apr-22 11:14 092 15.6
2014-Apr-22 11:04 096 1 gusting 4 15.0
2014-Apr-22 10:54 105 15.0
2014-Apr-22 10:44 068 0 gusting 2 15.0
2014-Apr-22 10:34 060 0 gusting 2 15.0
2014-Apr-22 10:24 057 14.4
2014-Apr-22 10:14 065 0 gusting 3 14.4
2014-Apr-22 10:04 040 1 gusting 3 14.4
2014-Apr-22 09:54 034 0 gusting 3 14.4
2014-Apr-22 09:44 057 0 gusting 3 14.4
2014-Apr-22 09:34 040 0 gusting 2 14.4
2014-Apr-22 09:24 005 14.4
2014-Apr-22 09:14 009 13.9
2014-Apr-22 09:04 333 13.9
2014-Apr-22 08:54 333 13.9
2014-Apr-22 08:44 333 13.9
2014-Apr-22 08:34 333 0 gusting 2 13.9
2014-Apr-22 08:24 329 1 gusting 5 13.9
2014-Apr-22 08:14 325 2 gusting 5 13.9
2014-Apr-22 08:04 315 3 gusting 5 13.9
2014-Apr-22 07:54 329 2 gusting 3 13.9
2014-Apr-22 07:44 342 0 gusting 1 13.9
2014-Apr-22 07:34 342 0 gusting 1 13.9
2014-Apr-22 07:24 345 0 gusting 2 13.3
2014-Apr-22 07:14 344 1 gusting 3 13.3
2014-Apr-22 07:04 351 0 gusting 2 13.3
2014-Apr-22 06:54 339 13.9
2014-Apr-22 06:44 335 0 gusting 2 13.9
2014-Apr-22 06:34 335 1 gusting 3 13.3
2014-Apr-22 06:24 350 0 gusting 2 13.9
2014-Apr-22 06:14 350 0 gusting 1 13.9
2014-Apr-22 06:04 350 13.9
2014-Apr-22 05:54 350 13.9
2014-Apr-22 05:44 350 13.3
2014-Apr-22 05:34 350 13.3
2014-Apr-22 05:24 350 13.3
2014-Apr-22 05:14 350 13.3
2014-Apr-22 05:04 350 13.3
2014-Apr-22 04:54 350 13.3
2014-Apr-22 04:44 350 13.3
2014-Apr-22 04:34 350 13.3
2014-Apr-22 04:24 350 13.3
2014-Apr-22 04:14 350 13.3
2014-Apr-22 04:04 349 13.3
2014-Apr-22 03:54 349 0 gusting 2 13.3
2014-Apr-22 03:44 349 2 gusting 3 13.9
2014-Apr-22 03:34 190 0 gusting 2 13.9
2014-Apr-22 03:24 191 2 gusting 4 13.9
2014-Apr-22 03:14 337 13.9
2014-Apr-22 03:04 329 2 gusting 3 13.9
2014-Apr-22 02:54 350 0 gusting 2 13.9
2014-Apr-22 02:44 350 0 gusting 2 13.9
2014-Apr-22 02:34 350 0 gusting 1 13.9
2014-Apr-22 02:14 350 0 gusting 1 13.9
2014-Apr-22 02:04 350 13.9
2014-Apr-22 01:54 350 13.9
2014-Apr-22 01:44 350 13.9
2014-Apr-22 01:34 350 13.9
2014-Apr-22 01:24 350 13.9
2014-Apr-22 01:14 350 13.9
2014-Apr-22 01:04 350 13.3
2014-Apr-22 00:54 355 2 gusting 4 13.3
2014-Apr-22 00:44 360 13.9
2014-Apr-22 00:34 061 13.9
2014-Apr-22 00:24 061 13.9
2014-Apr-22 00:14 061 13.9
2014-Apr-22 00:04 061 13.9
2014-Apr-21 23:54 061 13.9
2014-Apr-21 23:44 057 13.9
2014-Apr-21 23:34 056 13.9
2014-Apr-21 23:24 056 13.3
2014-Apr-21 23:14 056 13.3
2014-Apr-21 23:04 056 0 gusting 2 13.3
2014-Apr-21 22:54 092 13.3
2014-Apr-21 22:44 092 13.3
2014-Apr-21 22:34 092 13.9
2014-Apr-21 22:24 092 13.9
2014-Apr-21 22:14 092 13.9
2014-Apr-21 22:04 094 13.9
2014-Apr-21 21:54 144 13.9
2014-Apr-21 21:44 144 13.9
2014-Apr-21 21:34 144 13.9
2014-Apr-21 21:24 144 13.9
2014-Apr-21 21:14 144 13.9
2014-Apr-21 21:04 144 13.9
2014-Apr-21 20:54 144 13.9
2014-Apr-21 20:44 144 13.9
2014-Apr-21 20:34 144 14.4
2014-Apr-21 20:24 144 14.4
2014-Apr-21 20:14 144 14.4
2014-Apr-21 20:04 144 14.4
2014-Apr-21 19:54 144 14.4
2014-Apr-21 19:44 144 14.4
2014-Apr-21 19:34 142 0 gusting 4 15.0
2014-Apr-21 19:24 157 1 gusting 4 15.0
2014-Apr-21 19:14 155 0 gusting 2 15.0
2014-Apr-21 19:04 152 15.0
2014-Apr-21 18:54 153 1 gusting 3 15.0
2014-Apr-21 18:44 153 15.0
2014-Apr-21 18:34 171 2 gusting 5 15.0
2014-Apr-21 18:24 167 4 gusting 6 15.0
2014-Apr-21 18:14 158 2 gusting 6 15.0
2014-Apr-21 18:04 115 3 gusting 6 15.6
2014-Apr-21 17:54 130 4 gusting 6 15.6
2014-Apr-21 17:44 136 4 gusting 7 15.6
2014-Apr-21 17:34 133 3 gusting 6 16.1
2014-Apr-21 17:24 180 5 gusting 9 16.1
2014-Apr-21 17:14 128 3 gusting 8 16.1
2014-Apr-21 17:04 130 5 gusting 9 16.1
2014-Apr-21 16:54 127 3 gusting 8 16.1
2014-Apr-21 16:44 155 4 gusting 9 15.6
2014-Apr-21 16:34 138 3 gusting 6 16.1
2014-Apr-21 16:24 144 2 gusting 7 16.1
2014-Apr-21 16:14 101 4 gusting 8 16.1
2014-Apr-21 16:04 096 3 gusting 7 16.7
2014-Apr-21 15:54 113 3 gusting 9 16.1
2014-Apr-21 15:44 114 2 gusting 6 15.6
2014-Apr-21 15:34 102 2 gusting 7 16.1
2014-Apr-21 15:24 082 2 gusting 7 16.1
2014-Apr-21 15:14 118 1 gusting 6 16.1
2014-Apr-21 15:04 113 3 gusting 9 16.1
2014-Apr-21 14:54 095 1 gusting 12 16.7
2014-Apr-21 14:44 098 2 gusting 7 16.1
2014-Apr-21 14:34 107 3 gusting 8 15.6
2014-Apr-21 14:24 098 3 gusting 6 15.6
2014-Apr-21 14:14 130 3 gusting 7 15.6
2014-Apr-21 14:04 091 1 gusting 6 15.6
2014-Apr-21 13:54 096 3 gusting 7 15.0
2014-Apr-21 13:44 098 3 gusting 8 15.0
2014-Apr-21 13:34 088 3 gusting 6 15.6
2014-Apr-21 13:24 107 2 gusting 6 15.6
2014-Apr-21 13:14 160 1 gusting 6 15.6
2014-Apr-21 13:04 097 1 gusting 6 15.0